[[{"header":{"parameterUnit":"m.s-1","parameterCategory":2,"la1":30.2992,"la2":30.254,"lo1":-89.0895,"lo2":-89.0443,"dy":0.0025,"dx":0.0025,"nx":19,"ny":19,"refTime":"2026-04-08T21:00:00:Z","depth":"0","parameterNumber":2,"parameterNumberName":"U-component_of_CURRENTS"},"data":[0,0,0,-0.1692,-0.1692,-0.1694,-0.1693,-0.1665,-0.1665,0,0,0,0,0,0,0,0,0,0,0,-0.1686,-0.1686,-0.1692,-0.1692,-0.1694,-0.1693,-0.1665,-0.1665,0,0,0,0,0,0,0,0,0,0,0,-0.1686,-0.1686,-0.1686,-0.1692,-0.1694,-0.1693,-0.1665,-0.167,0,0,0,0,0,0,0,0,0,0,-0.1672,-0.167,-0.1686,-0.1686,-0.1692,-0.1694,-0.1693,-0.1671,-0.167,-0.1657,0,-0.1658,0,-0.1664,-0.1663,-0.1662,0,0,0,-0.1687,-0.167,-0.1676,-0.1686,-0.1692,-0.1694,-0.1691,-0.167,-0.1669,-0.1656,-0.1658,-0.1657,-0.1664,-0.1662,-0.1662,-0.1669,-0.1669,0,0,-0.1687,-0.168,-0.1677,-0.1675,-0.1693,-0.1691,-0.1692,-0.167,-0.1665,-0.1658,-0.1657,-0.1664,-0.1662,-0.1662,-0.1669,-0.1669,0,0,0,-0.169,-0.168,-0.1687,-0.1676,-0.1681,-0.1692,-0.1692,-0.1666,-0.167,-0.1656,-0.1663,-0.1662,-0.1662,-0.1668,-0.1669,-0.1691,0,0,0,-0.169,-0.1683,-0.1687,-0.1682,-0.1682,-0.1677,-0.1688,-0.1671,-0.1669,-0.1663,-0.1662,-0.1661,-0.1668,-0.1669,-0.169,-0.1694,0,0,0,-0.1686,-0.1682,-0.1684,-0.1682,-0.1686,-0.1678,-0.168,-0.1671,-0.1673,-0.1662,-0.1661,-0.1668,-0.1668,-0.1689,-0.1692,-0.1669,0,0,0,-0.1678,-0.1685,-0.1683,-0.1698,-0.1686,-0.171,-0.168,-0.1688,-0.1682,-0.1662,-0.1668,-0.1669,-0.1688,-0.1691,-0.1668,-0.153,-0.1521,0,0,-0.1686,-0.1685,-0.1697,-0.1697,-0.1721,-0.171,-0.1729,-0.1705,-0.1688,-0.1671,-0.1671,-0.169,-0.1692,-0.1669,-0.1573,-0.1562,0,0,0,-0.17,-0.1701,-0.1712,-0.1722,-0.1741,-0.1744,-0.1732,-0.1726,-0.1711,-0.1689,-0.1699,-0.17,-0.1684,-0.16,-0.1592,-0.1532,-0.1672,-0.1672,-0.1672,-0.1677,-0.17,-0.1716,-0.1739,-0.1755,-0.1766,-0.1769,-0.1755,-0.1738,-0.1738,-0.1725,-0.1732,-0.1645,-0.1637,-0.1578,-0.1736,-0.1736,-0.1736,-0.1736,-0.1672,-0.1671,-0.1708,-0.1729,-0.175,-0.1764,-0.1783,-0.1777,-0.1764,-0.1757,-0.174,-0.1637,-0.1629,-0.157,-0.1738,-0.1737,-0.1737,-0.1737,-0.1737,-0.1633,-0.1634,-0.1659,-0.1688,-0.1715,-0.1749,-0.175,-0.1771,-0.1772,-0.1771,-0.1643,-0.164,-0.1578,-0.1748,-0.1748,-0.1748,-0.1748,-0.1748,-0.1748,-0.1565,-0.1595,-0.1592,-0.1641,-0.1651,-0.1679,-0.1721,-0.1714,-0.1672,-0.1649,-0.1648,-0.1565,-0.1735,-0.1724,-0.1747,-0.1747,-0.1747,-0.1747,-0.1747,-0.148,-0.1502,-0.1494,-0.1502,-0.1537,-0.1509,-0.1588,-0.1534,-0.154,-0.1487,-0.1418,-0.1572,-0.1542,-0.1546,-0.153,-0.1501,-0.1501,-0.1501,-0.1501,-0.1403,-0.1424,-0.1382,-0.1375,-0.1385,-0.1416,-0.131,-0.1295,-0.127,-0.1228,-0.1288,-0.1255,-0.1268,-0.1222,-0.1233,-0.1211,-0.1102,-0.1102,-0.1102,-0.1325,-0.1335,-0.1271,-0.1292,-0.1303,-0.1279,-0.1134,-0.1041,-0.1035,-0.1087,-0.1237,-0.1253,-0.1212,-0.1237,-0.1171,-0.1193,-0.1158,0,0]},{"header":{"parameterUnit":"m.s-1","parameterCategory":2,"la1":30.2992,"la2":30.254,"lo1":-89.0895,"lo2":-89.0443,"dy":0.0025,"dx":0.0025,"nx":19,"ny":19,"refTime":"2026-04-08T21:00:00:Z","depth":"0","parameterNumber":3,"parameterNumberName":"V-component_of_CURRENTS"},"data":[0,0,0,-0.0271,-0.0271,-0.0211,-0.021,-0.0115,-0.0114,0,0,0,0,0,0,0,0,0,0,0,-0.0294,-0.0294,-0.0272,-0.027,-0.0211,-0.021,-0.0115,-0.0114,0,0,0,0,0,0,0,0,0,0,0,-0.0294,-0.0294,-0.0294,-0.027,-0.0211,-0.021,-0.0115,-0.0162,0,0,0,0,0,0,0,0,0,0,-0.0221,-0.0252,-0.0294,-0.0294,-0.027,-0.0211,-0.021,-0.0164,-0.0159,-0.014,0,-0.0139,0,-0.0128,-0.0108,-0.0108,0,0,0,-0.0259,-0.0257,-0.0239,-0.0294,-0.027,-0.0211,-0.0235,-0.0162,-0.0156,-0.0132,-0.0138,-0.0134,-0.0126,-0.0107,-0.0107,-0.0045,-0.0045,0,0,-0.0263,-0.028,-0.0244,-0.0236,-0.0265,-0.0237,-0.0233,-0.0158,-0.0157,-0.0137,-0.0132,-0.0124,-0.0107,-0.0106,-0.0045,-0.0045,0,0,0,-0.028,-0.0283,-0.0267,-0.024,-0.0232,-0.0235,-0.0231,-0.016,-0.0155,-0.0131,-0.0123,-0.0106,-0.0105,-0.0045,-0.0045,-0.0094,0,0,0,-0.0281,-0.0293,-0.0269,-0.0278,-0.0234,-0.0199,-0.0235,-0.016,-0.0151,-0.0124,-0.0106,-0.0104,-0.0045,-0.0045,-0.0092,-0.0111,0,0,0,-0.0295,-0.0295,-0.0291,-0.028,-0.0258,-0.02,-0.019,-0.0158,-0.0147,-0.0108,-0.0104,-0.0045,-0.0045,-0.0091,-0.0109,-0.0077,0,0,0,-0.0309,-0.0323,-0.0292,-0.0301,-0.0259,-0.0231,-0.019,-0.0162,-0.0133,-0.0106,-0.0045,-0.0045,-0.0091,-0.0108,-0.0077,-0.0017,-0.0015,0,0,-0.0338,-0.0327,-0.0332,-0.0302,-0.0297,-0.0238,-0.0217,-0.0162,-0.0123,-0.0066,-0.0065,-0.0093,-0.0109,-0.0077,-0.0014,-0.0011,0,0,0,-0.0348,-0.0355,-0.0347,-0.0334,-0.0297,-0.0258,-0.02,-0.0166,-0.0116,-0.0107,-0.0078,-0.0086,-0.0064,-0.0027,-0.0025,0.0082,-0.0045,-0.0045,-0.0045,-0.0409,-0.0387,-0.0397,-0.0365,-0.0339,-0.0266,-0.0229,-0.0169,-0.0133,-0.0117,-0.0115,-0.011,-0.0072,-0.0069,0.0039,-0.0103,-0.0103,-0.0103,-0.0103,-0.0465,-0.0474,-0.0437,-0.044,-0.0382,-0.0351,-0.0255,-0.0218,-0.0149,-0.0134,-0.011,-0.0068,-0.007,0.0045,-0.0106,-0.0106,-0.0105,-0.0105,-0.0105,-0.0514,-0.0516,-0.0512,-0.0507,-0.0474,-0.0403,-0.0348,-0.0279,-0.0194,-0.0176,-0.0087,-0.0086,0.001,-0.0151,-0.0151,-0.0151,-0.0151,-0.0151,-0.0151,-0.0569,-0.0563,-0.0586,-0.0573,-0.0564,-0.0519,-0.0402,-0.0331,-0.0198,-0.0124,-0.0123,0.0034,-0.0123,-0.0128,-0.015,-0.015,-0.015,-0.015,-0.015,-0.0629,-0.0627,-0.0665,-0.067,-0.0645,-0.0585,-0.048,-0.0278,-0.0189,-0.01,0.009,-0.0075,-0.0042,-0.0042,-0.0044,-0.0043,-0.0043,-0.0043,-0.0043,-0.0671,-0.0673,-0.0719,-0.0733,-0.0714,-0.0614,-0.0442,-0.0224,0.0045,0.0177,0.0193,0.0219,0.021,0.0259,0.0252,0.0258,0.0335,0.0335,0.0336,-0.0707,-0.0717,-0.0752,-0.0762,-0.0739,-0.062,-0.0418,-0.0109,0.0252,0.036,0.033,0.0314,0.0358,0.0336,0.0416,0.0398,0.0408,0,0]}],[{"header":{"parameterUnit":"m.s-1","parameterCategory":2,"la1":30.2992,"la2":30.254,"lo1":-89.0895,"lo2":-89.0443,"dy":0.0025,"dx":0.0025,"nx":19,"ny":19,"refTime":"2026-04-08T21:00:00:Z","depth":"2","parameterNumber":2,"parameterNumberName":"U-component_of_CURRENTS"},"data":[0,0,0,-0.1353,-0.1354,-0.1378,-0.1378,-0.1367,-0.1366,0,0,0,0,0,0,0,0,0,0,0,-0.1341,-0.1342,-0.1353,-0.1354,-0.1378,-0.1378,-0.1367,-0.1366,0,0,0,0,0,0,0,0,0,0,0,-0.1341,-0.1342,-0.1342,-0.1354,-0.1378,-0.1378,-0.1367,-0.1358,0,0,0,0,0,0,0,0,0,0,-0.1339,-0.1333,-0.1342,-0.1342,-0.1354,-0.1378,-0.1378,-0.1358,-0.1358,-0.1345,0,-0.1351,0,-0.1361,-0.1365,-0.1365,0,0,0,-0.1349,-0.1333,-0.1344,-0.1342,-0.1354,-0.1378,-0.1366,-0.1358,-0.1359,-0.1345,-0.1351,-0.1351,-0.1361,-0.1365,-0.1365,-0.1378,-0.1378,0,0,-0.1348,-0.134,-0.1343,-0.1344,-0.1363,-0.1365,-0.1367,-0.1359,-0.1357,-0.1351,-0.1351,-0.1361,-0.1365,-0.1365,-0.1377,-0.1378,0,0,0,-0.1347,-0.1339,-0.1351,-0.1344,-0.1354,-0.1366,-0.1368,-0.1358,-0.1363,-0.1351,-0.1361,-0.1365,-0.1364,-0.1377,-0.1378,-0.1403,0,0,0,-0.1346,-0.1339,-0.135,-0.1345,-0.1354,-0.1361,-0.1366,-0.1363,-0.1363,-0.1361,-0.1365,-0.1364,-0.1377,-0.1377,-0.1402,-0.1406,0,0,0,-0.134,-0.1339,-0.1344,-0.1345,-0.1359,-0.1362,-0.1367,-0.1364,-0.1368,-0.1365,-0.1364,-0.1377,-0.1377,-0.1401,-0.1404,-0.1382,0,0,0,-0.1328,-0.134,-0.1343,-0.1362,-0.1359,-0.1389,-0.1367,-0.1383,-0.1384,-0.1365,-0.1377,-0.1377,-0.14,-0.1403,-0.1381,-0.124,-0.1231,0,0,-0.1339,-0.1341,-0.1355,-0.1359,-0.1388,-0.1385,-0.141,-0.14,-0.1388,-0.1374,-0.1375,-0.1402,-0.1404,-0.1382,-0.128,-0.1269,0,0,0,-0.1356,-0.136,-0.1372,-0.1389,-0.1411,-0.1422,-0.1421,-0.1419,-0.1415,-0.1392,-0.1409,-0.1409,-0.1394,-0.1308,-0.1301,-0.1381,-0.1381,-0.1381,-0.1381,-0.1338,-0.1361,-0.1381,-0.1407,-0.1427,-0.1448,-0.1455,-0.1449,-0.1438,-0.1443,-0.1436,-0.1444,-0.1354,-0.1347,-0.1445,-0.1446,-0.1446,-0.1446,-0.1446,-0.1338,-0.134,-0.1378,-0.1405,-0.1431,-0.1452,-0.1473,-0.1473,-0.1468,-0.1465,-0.1449,-0.1347,-0.1339,-0.1448,-0.1448,-0.1447,-0.1447,-0.1447,-0.1447,-0.1305,-0.1309,-0.1338,-0.1373,-0.1408,-0.1446,-0.1451,-0.1477,-0.1479,-0.148,-0.1355,-0.1352,-0.1437,-0.1463,-0.1463,-0.1463,-0.1463,-0.1463,-0.1463,-0.1246,-0.1278,-0.1283,-0.1336,-0.1353,-0.1386,-0.1432,-0.1425,-0.1385,-0.1363,-0.1361,-0.1449,-0.1448,-0.1438,-0.1462,-0.1462,-0.1462,-0.1462,-0.1462,-0.1174,-0.1197,-0.1198,-0.1213,-0.1253,-0.1226,-0.1306,-0.125,-0.1254,-0.1199,-0.1281,-0.1285,-0.1254,-0.1258,-0.1242,-0.1215,-0.1215,-0.1215,-0.1215,-0.1106,-0.1126,-0.11,-0.1099,-0.111,-0.1138,-0.103,-0.1,-0.1027,-0.1017,-0.1026,-0.0997,-0.101,-0.0964,-0.0975,-0.0954,-0.0851,-0.0851,-0.0851,-0.1036,-0.1048,-0.0998,-0.1022,-0.1032,-0.1005,-0.0857,-0.0733,-0.0725,-0.0841,-0.101,-0.1181,-0.1161,-0.1173,-0.1122,-0.1132,-0.1106,0,0]},{"header":{"parameterUnit":"m.s-1","parameterCategory":2,"la1":30.2992,"la2":30.254,"lo1":-89.0895,"lo2":-89.0443,"dy":0.0025,"dx":0.0025,"nx":19,"ny":19,"refTime":"2026-04-08T21:00:00:Z","depth":"2","parameterNumber":3,"parameterNumberName":"V-component_of_CURRENTS"},"data":[0,0,0,-0.0292,-0.0291,-0.0235,-0.0235,-0.0145,-0.0144,0,0,0,0,0,0,0,0,0,0,0,-0.0312,-0.0312,-0.0292,-0.0291,-0.0236,-0.0235,-0.0145,-0.0144,0,0,0,0,0,0,0,0,0,0,0,-0.0312,-0.0312,-0.0312,-0.0291,-0.0236,-0.0235,-0.0145,-0.0189,0,0,0,0,0,0,0,0,0,0,-0.0244,-0.0273,-0.0312,-0.0312,-0.029,-0.0236,-0.0235,-0.0191,-0.0186,-0.0167,0,-0.0167,0,-0.0157,-0.0138,-0.0138,0,0,0,-0.028,-0.0277,-0.0261,-0.0312,-0.029,-0.0236,-0.0257,-0.0189,-0.0183,-0.0161,-0.0166,-0.0162,-0.0155,-0.0138,-0.0137,-0.0077,-0.0077,0,0,-0.0283,-0.0299,-0.0265,-0.0258,-0.0285,-0.0259,-0.0256,-0.0185,-0.0184,-0.0165,-0.016,-0.0154,-0.0137,-0.0137,-0.0077,-0.0077,0,0,0,-0.0299,-0.0302,-0.0287,-0.0261,-0.0255,-0.0258,-0.0254,-0.0187,-0.0182,-0.0159,-0.0153,-0.0137,-0.0136,-0.0077,-0.0077,-0.0122,0,0,0,-0.03,-0.0312,-0.0289,-0.0297,-0.0257,-0.0224,-0.0257,-0.0187,-0.0179,-0.0153,-0.0137,-0.0135,-0.0077,-0.0077,-0.0121,-0.0143,0,0,0,-0.0313,-0.0313,-0.0309,-0.0299,-0.0279,-0.0225,-0.0215,-0.0185,-0.0175,-0.0138,-0.0135,-0.0077,-0.0077,-0.012,-0.014,-0.011,0,0,0,-0.0327,-0.0339,-0.031,-0.0318,-0.028,-0.0253,-0.0216,-0.0189,-0.0162,-0.0136,-0.0077,-0.0077,-0.0119,-0.0139,-0.011,-0.0062,-0.006,0,0,-0.0352,-0.0342,-0.0347,-0.032,-0.0314,-0.026,-0.0239,-0.0188,-0.0151,-0.0097,-0.0096,-0.0121,-0.014,-0.011,-0.0056,-0.0054,0,0,0,-0.0361,-0.0367,-0.0359,-0.0348,-0.0314,-0.0278,-0.0223,-0.0191,-0.0143,-0.0136,-0.0106,-0.0117,-0.0096,-0.0066,-0.0065,-0.0077,-0.0077,-0.0077,-0.0077,-0.0417,-0.0397,-0.0405,-0.0375,-0.0351,-0.0285,-0.025,-0.0193,-0.0159,-0.0143,-0.0142,-0.0136,-0.0105,-0.0104,-0.0127,-0.0128,-0.0128,-0.0128,-0.0128,-0.0467,-0.0475,-0.0441,-0.0444,-0.0391,-0.0363,-0.0273,-0.0237,-0.0174,-0.016,-0.0137,-0.0102,-0.0105,-0.0131,-0.0131,-0.013,-0.013,-0.0129,-0.0129,-0.0511,-0.0513,-0.051,-0.0506,-0.0477,-0.0411,-0.0361,-0.0295,-0.0217,-0.02,-0.0123,-0.0121,-0.0154,-0.0176,-0.0176,-0.0176,-0.0176,-0.0176,-0.0176,-0.056,-0.0555,-0.0578,-0.0567,-0.056,-0.052,-0.0413,-0.0348,-0.0227,-0.0161,-0.0159,-0.0152,-0.015,-0.0155,-0.0176,-0.0176,-0.0176,-0.0176,-0.0176,-0.0614,-0.0614,-0.065,-0.0657,-0.0637,-0.0587,-0.0489,-0.0309,-0.0226,-0.0148,-0.0116,-0.0117,-0.0089,-0.0088,-0.0091,-0.0093,-0.0093,-0.0093,-0.0093,-0.0652,-0.0655,-0.0701,-0.0716,-0.0703,-0.0616,-0.0468,-0.0277,-0.012,-0.0053,-0.0055,-0.0049,-0.0052,-0.0021,-0.0022,-0.0023,-0.0008,-0.0008,-0.0008,-0.0684,-0.0695,-0.073,-0.0743,-0.0729,-0.0626,-0.0455,-0.0195,0.0001,-0.0007,-0.0068,-0.0082,-0.0077,-0.0081,-0.0035,-0.0037,-0.0039,0,0]}],[{"header":{"parameterUnit":"m.s-1","parameterCategory":2,"la1":30.2992,"la2":30.254,"lo1":-89.0895,"lo2":-89.0443,"dy":0.0025,"dx":0.0025,"nx":19,"ny":19,"refTime":"2026-04-08T21:00:00:Z","depth":"4","parameterNumber":2,"parameterNumberName":"U-component_of_CURRENTS"},"data":[0,0,0,-0.0828,-0.083,-0.0916,-0.0916,-0.0966,-0.0967,0,0,0,0,0,0,0,0,0,0,0,-0.08,-0.0801,-0.0828,-0.083,-0.0916,-0.0916,-0.0966,-0.0967,0,0,0,0,0,0,0,0,0,0,0,-0.08,-0.08,-0.0801,-0.0831,-0.0916,-0.0916,-0.0966,-0.0916,0,0,0,0,0,0,0,0,0,0,-0.084,-0.0822,-0.08,-0.0801,-0.0831,-0.0916,-0.0916,-0.0914,-0.0919,-0.0911,0,-0.0931,0,-0.0949,-0.0969,-0.0969,0,0,0,-0.0829,-0.0818,-0.0842,-0.0801,-0.0832,-0.0916,-0.0877,-0.0917,-0.0923,-0.0917,-0.0932,-0.0934,-0.095,-0.0969,-0.0969,-0.1016,-0.1016,0,0,-0.0824,-0.0812,-0.0839,-0.0846,-0.0862,-0.0874,-0.0879,-0.0921,-0.0928,-0.0932,-0.0936,-0.0951,-0.0969,-0.0969,-0.1016,-0.1016,0,0,0,-0.0811,-0.0809,-0.0833,-0.0843,-0.0864,-0.0877,-0.0883,-0.0926,-0.0935,-0.0936,-0.0951,-0.0969,-0.097,-0.1016,-0.1016,-0.104,0,0,0,-0.0808,-0.0802,-0.0831,-0.0825,-0.0863,-0.0904,-0.0887,-0.0932,-0.0938,-0.0951,-0.0969,-0.097,-0.1015,-0.1016,-0.1038,-0.1041,0,0,0,-0.0795,-0.08,-0.0813,-0.0824,-0.0862,-0.0904,-0.0916,-0.0934,-0.0946,-0.0969,-0.097,-0.1015,-0.1016,-0.1037,-0.1039,-0.102,0,0,0,-0.0775,-0.0799,-0.0813,-0.0847,-0.0861,-0.0917,-0.0916,-0.0959,-0.0982,-0.097,-0.1015,-0.1016,-0.1037,-0.1038,-0.1019,-0.087,0,0,0,-0.0792,-0.0801,-0.0821,-0.0836,-0.0887,-0.0904,-0.0953,-0.0982,-0.0986,-0.0996,-0.0998,-0.1039,-0.1039,-0.102,-0.0911,0,0,0,0,-0.0818,-0.0831,-0.0851,-0.0886,-0.0925,-0.096,-0.0992,-0.1001,-0.1029,-0.1003,-0.1046,-0.1045,-0.1032,-0.0944,-0.1019,-0.1019,-0.1019,-0.1019,-0.1019,-0.0808,-0.0839,-0.0874,-0.0916,-0.0953,-0.1002,-0.1025,-0.1042,-0.1048,-0.1065,-0.107,-0.1078,-0.0989,-0.108,-0.108,-0.108,-0.108,-0.108,-0.108,-0.0818,-0.0831,-0.0883,-0.093,-0.0975,-0.102,-0.1059,-0.1072,-0.1088,-0.1095,-0.1081,-0.0983,-0.1083,-0.1082,-0.1082,-0.1081,-0.1081,-0.1081,-0.1081,-0.0792,-0.0801,-0.0848,-0.0911,-0.0971,-0.1029,-0.1047,-0.1089,-0.1101,-0.1105,-0.099,-0.1083,-0.1072,-0.1096,-0.1096,-0.1096,-0.1096,-0.1096,-0.1096,-0.0734,-0.078,-0.0809,-0.0887,-0.0924,-0.0978,-0.1043,-0.1038,-0.1067,-0.0992,-0.1107,-0.1083,-0.1083,-0.1073,-0.1095,-0.1095,-0.1095,-0.1096,-0.1096,-0.0676,-0.0706,-0.0736,-0.0773,-0.0845,-0.0875,-0.0964,-0.0927,-0.0904,-0.0853,-0.0918,-0.0927,-0.0895,-0.0899,-0.0881,-0.0848,-0.0846,-0.0844,0,-0.0617,-0.0641,-0.0658,-0.0683,-0.0706,-0.0796,-0.0741,-0.0759,-0.0776,-0.075,-0.0897,-0.0972,-0.0977,-0.0944,-0.0944,-0.0924,0,0,0,-0.0563,-0.0582,-0.0565,-0.0612,-0.0633,-0.0648,-0.0718,-0.0678,-0.0792,-0.0719,-0.0797,-0.081,-0.0982,-0.1093,-0.1065,-0.1065,-0.1046,0,0]},{"header":{"parameterUnit":"m.s-1","parameterCategory":2,"la1":30.2992,"la2":30.254,"lo1":-89.0895,"lo2":-89.0443,"dy":0.0025,"dx":0.0025,"nx":19,"ny":19,"refTime":"2026-04-08T21:00:00:Z","depth":"4","parameterNumber":3,"parameterNumberName":"V-component_of_CURRENTS"},"data":[0,0,0,-0.0228,-0.0228,-0.02,-0.02,-0.0134,-0.0133,0,0,0,0,0,0,0,0,0,0,0,-0.0238,-0.0238,-0.0228,-0.0228,-0.02,-0.02,-0.0134,-0.0133,0,0,0,0,0,0,0,0,0,0,0,-0.0238,-0.0238,-0.0238,-0.0228,-0.02,-0.02,-0.0134,-0.016,0,0,0,0,0,0,0,0,0,0,-0.019,-0.0211,-0.0238,-0.0238,-0.0228,-0.02,-0.02,-0.0162,-0.0159,-0.0141,0,-0.0144,0,-0.014,-0.0129,-0.0128,0,0,0,-0.0219,-0.0214,-0.0204,-0.0238,-0.0228,-0.02,-0.021,-0.016,-0.0156,-0.0136,-0.0143,-0.014,-0.0139,-0.0128,-0.0128,-0.0079,-0.0079,0,0,-0.022,-0.0231,-0.0207,-0.0202,-0.0229,-0.0211,-0.0209,-0.0158,-0.0159,-0.0143,-0.0139,-0.0138,-0.0128,-0.0127,-0.0079,-0.0079,0,0,0,-0.0231,-0.0233,-0.0225,-0.0205,-0.0204,-0.021,-0.0208,-0.0161,-0.0158,-0.0138,-0.0137,-0.0128,-0.0127,-0.0079,-0.0079,-0.0115,0,0,0,-0.0231,-0.0239,-0.0226,-0.0232,-0.0205,-0.0187,-0.0212,-0.0162,-0.0156,-0.0137,-0.0127,-0.0126,-0.0079,-0.0079,-0.0114,-0.0139,0,0,0,-0.0238,-0.024,-0.0239,-0.0233,-0.0225,-0.0188,-0.0182,-0.016,-0.0155,-0.0128,-0.0126,-0.0079,-0.0079,-0.0114,-0.0137,-0.0114,0,0,0,-0.0246,-0.0258,-0.024,-0.025,-0.0225,-0.021,-0.0182,-0.0167,-0.0148,-0.0127,-0.0079,-0.0079,-0.0113,-0.0136,-0.0113,-0.0113,0,0,0,-0.0266,-0.0261,-0.0266,-0.0249,-0.0251,-0.0213,-0.0203,-0.0167,-0.0137,-0.0092,-0.0091,-0.0115,-0.0137,-0.0114,-0.0104,0,0,0,0,-0.0276,-0.0282,-0.0278,-0.0275,-0.0254,-0.0232,-0.0194,-0.017,-0.0132,-0.0126,-0.0101,-0.0114,-0.0098,-0.0096,-0.0078,-0.0078,-0.0078,-0.0078,-0.0078,-0.0316,-0.0304,-0.0315,-0.0298,-0.0284,-0.0241,-0.0216,-0.0173,-0.0145,-0.0132,-0.0133,-0.013,-0.0129,-0.0116,-0.0117,-0.0117,-0.0117,-0.0117,-0.0117,-0.0352,-0.0359,-0.0343,-0.0352,-0.032,-0.0304,-0.0237,-0.021,-0.0162,-0.0149,-0.0131,-0.0123,-0.012,-0.012,-0.0119,-0.0119,-0.0119,-0.0118,-0.0118,-0.038,-0.0382,-0.0391,-0.04,-0.0389,-0.0346,-0.0312,-0.026,-0.0199,-0.0187,-0.0151,-0.0142,-0.0148,-0.0167,-0.0167,-0.0167,-0.0167,-0.0167,-0.0167,-0.0406,-0.0412,-0.044,-0.0446,-0.0452,-0.043,-0.0356,-0.0306,-0.0236,-0.0192,-0.0192,-0.0146,-0.0144,-0.015,-0.0167,-0.0167,-0.0167,-0.0167,-0.0167,-0.0432,-0.0444,-0.0483,-0.0503,-0.051,-0.0484,-0.0423,-0.0302,-0.0247,-0.0189,-0.0174,-0.0174,-0.0154,-0.0152,-0.0158,-0.0178,-0.0179,-0.0179,0,-0.0451,-0.0459,-0.0513,-0.0543,-0.0544,-0.0508,-0.0422,-0.0343,-0.0249,-0.0253,-0.0255,-0.0245,-0.0242,-0.0226,-0.0224,-0.0234,0,0,0,-0.0466,-0.0482,-0.0519,-0.0552,-0.0555,-0.0455,-0.0392,-0.0347,-0.0274,-0.0198,-0.018,-0.018,-0.0191,-0.0168,-0.0136,-0.0134,-0.0141,0,0]}]]